This is the latest recevied weather packets stored in our database for station/object DH5DY-6. If no packets are shown the sender has not sent any weather packets the latest 1 day(s).
| Time | Temp. | Humidity | Pressure | Rain* | Wind** | Luminosity | Snow |
|---|---|---|---|---|---|---|---|
| 1778014720 | 12.22° C | 94% | 1004.5 hPa | 1.52 mm | 0 m/s | 0 W/m² | - |
| 1778014119 | 12.22° C | 94% | 1004.6 hPa | 1.52 mm | 0 m/s | 0 W/m² | - |
| 1778013520 | 12.22° C | 94% | 1004.7 hPa | 1.78 mm | 0 m/s | 0 W/m² | - |
| 1778012919 | 12.22° C | 94% | 1004.6 hPa | 2.29 mm | 0 m/s | 0 W/m² | - |
| 1778012319 | 12.22° C | 94% | 1004.7 hPa | 2.54 mm | 0 m/s | 0 W/m² | - |
| 1778011721 | 12.22° C | 94% | 1004.7 hPa | 2.54 mm | 0 m/s | 0 W/m² | - |
| 1778011120 | 12.78° C | 94% | 1004.6 hPa | 2.29 mm | 0 m/s | 0 W/m² | - |
| 1778010520 | 12.78° C | 94% | 1004.5 hPa | 2.29 mm | 0 m/s | 0 W/m² | - |
| 1778009919 | 12.78° C | 94% | 1004.5 hPa | 2.29 mm | 0 m/s | 0 W/m² | - |
| 1778009319 | 12.78° C | 94% | 1004.6 hPa | 1.78 mm | 0 m/s | 0 W/m² | - |
| 1778008719 | 13.33° C | 94% | 1004.6 hPa | 1.52 mm | 0 m/s | 0 W/m² | - |
| 1778007519 | 13.33° C | 94% | 1004.5 hPa | 1.02 mm | 0 m/s | 0 W/m² | - |
| 1778006919 | 13.33° C | 93% | 1004.5 hPa | 1.02 mm | 0 m/s | 0 W/m² | - |
| 1778005719 | 13.33° C | 93% | 1004.6 hPa | 1.02 mm | 0 m/s | 7 W/m² | - |
| 1778005119 | 13.33° C | 93% | 1004.6 hPa | 1.27 mm | 0 m/s | 11 W/m² | - |
| 1778004519 | 13.33° C | 93% | 1004.7 hPa | 2.03 mm | 0 m/s | 11 W/m² | - |
| 1778003918 | 13.33° C | 93% | 1004.7 hPa | 2.29 mm | 0 m/s | 14 W/m² | - |
| 1778003318 | 13.89° C | 93% | 1004.8 hPa | 2.29 mm | 0 m/s | 14 W/m² | - |
| 1778002719 | 13.89° C | 93% | 1004.8 hPa | 3.05 mm | 0 m/s | 21 W/m² | - |
| 1778002118 | 13.89° C | 93% | 1004.8 hPa | 3.3 mm | 0 m/s | 21 W/m² | - |
| 1778001518 | 13.89° C | 93% | 1005 hPa | 4.06 mm | 0.45 m/s, 360° | 19 W/m² | - |
| 1778000919 | 13.89° C | 93% | 1004.9 hPa | 4.06 mm | 0 m/s | 16 W/m² | - |
| 1778000318 | 13.89° C | 93% | 1005 hPa | 4.32 mm | 0 m/s | 26 W/m² | - |
| 1777999719 | 13.89° C | 93% | 1005 hPa | 4.06 mm | 0.89 m/s, 360° | 28 W/m² | - |
| 1777999119 | 13.89° C | 92% | 1004.9 hPa | 3.3 mm | 1.34 m/s, 360° | 28 W/m² | - |
* Rain latest hour (hover to see other rain measurements)
** Current wind speed in m/s (hover to see current wind gust speed)